This is the latest recevied weather packets stored in our database for station/object WD7CGF. If no packets are shown the sender has not sent any weather packets the latest 10 day(s).
| Time | Temp. | Humidity | Pressure | Rain* | Wind** | Luminosity | Snow |
|---|---|---|---|---|---|---|---|
| 1777567088 | 15° C | 60% | 1021.6 hPa | 0 mm | - | - | - |
| 1777566506 | 14.44° C | 62% | 1022 hPa | 0 mm | - | - | - |
| 1777565893 | 13.33° C | 65% | 1022 hPa | 0 mm | - | - | - |
| 1777565297 | 13.33° C | 65% | 1021.8 hPa | 0 mm | - | - | - |
| 1777564706 | 12.78° C | 67% | 1021.8 hPa | 0 mm | - | - | - |
| 1777564092 | 12.22° C | 69% | 1021.8 hPa | 0 mm | - | - | - |
| 1777563506 | 11.67° C | 68% | 1022.2 hPa | 0 mm | - | - | - |
| 1777562897 | 11.67° C | 70% | 1022.4 hPa | 0 mm | - | - | - |
| 1777562305 | 11.11° C | 72% | 1022.4 hPa | 0 mm | - | - | - |
| 1777561693 | 10.56° C | 74% | 1022.2 hPa | 0 mm | - | - | - |
| 1777561102 | 10° C | 76% | 1022.3 hPa | 0 mm | - | - | - |
| 1777560493 | 8.89° C | 80% | 1022.3 hPa | 0 mm | - | - | - |
| 1777559901 | 7.78° C | 83% | 1022.5 hPa | 0 mm | - | - | - |
| 1777559289 | 6.67° C | 87% | 1022.7 hPa | 0 mm | - | - | - |
| 1777558701 | 5° C | 90% | 1022.7 hPa | 0 mm | - | - | - |
| 1777558110 | 4.44° C | 92% | 1022.7 hPa | 0 mm | - | - | - |
| 1777557499 | 3.33° C | 92% | 1022.6 hPa | 0 mm | - | - | - |
| 1777556907 | 2.78° C | 92% | 1022.6 hPa | 0 mm | - | - | - |
| 1777556312 | 2.22° C | 92% | 1022.3 hPa | 0 mm | - | - | - |
| 1777555701 | 1.67° C | 91% | 1022.3 hPa | 0 mm | - | - | - |
| 1777555113 | 1.67° C | 91% | 1022.3 hPa | 0 mm | - | - | - |
| 1777554504 | 1.67° C | 91% | 1022.3 hPa | 0 mm | - | - | - |
| 1777553913 | 1.67° C | 91% | 1022.2 hPa | 0 mm | - | - | - |
| 1777553300 | 2.22° C | 90% | 1022.2 hPa | 0 mm | - | - | - |
| 1777552700 | 2.22° C | 90% | 1022.2 hPa | 0 mm | - | - | - |
* Rain since midnight (hover to see other rain measurements)
** Current wind speed in m/s (hover to see current wind gust speed)